Location: *
(17.3280°S, 114.7300°W)
Time: 08:44:11
(UTC+00:00)

Hubble Space Telescope - Visible Passes

Search period start: 27 October 2020 00:00
Search period end: 06 November 2020 00:00
Orbit: 536 x 540 km, 28.5° (Epoch: 26 October)

Date Brightness Start Highest point End Pass type
(mag) Time Alt. Az. Time Alt. Az. Time Alt. Az.
27 Oct 3.9 10:27:20 12° SE 10:27:20 12° SE 10:27:58 10° SE visible
27 Oct 2.7 12:03:33 10° SW 12:07:03 25° SSE 12:10:31 10° ESE visible
28 Oct 4.1 10:17:20 10° SE 10:17:20 10° SE 10:17:25 10° SE visible
28 Oct 2.5 11:52:43 10° SW 11:56:24 29° SSE 12:00:04 10° ESE visible
29 Oct 2.2 11:42:46 15° SW 11:45:44 35° SSE 11:49:35 10° E visible
30 Oct 1.8 11:33:02 25° SW 11:35:03 44° SSE 11:39:02 10° E visible
31 Oct 2.9 02:54:16 10° N 02:55:17 13° N 02:55:17 13° N visible
31 Oct 1.3 11:23:25 44° SSW 11:24:21 56° SSE 11:28:26 10° E visible
01 Nov 2.1 02:42:49 10° NNW 02:45:57 21° NNE 02:46:11 21° NE visible
01 Nov 1.0 11:13:59 68° ESE 11:13:59 68° ESE 11:17:47 10° ENE visible
02 Nov 1.8 02:31:36 10° NNW 02:35:09 28° NNE 02:37:03 20° ENE visible
02 Nov 3.7 04:12:09 10° WNW 04:12:28 12° W 04:12:28 12° W visible
02 Nov 2.1 11:04:42 33° ENE 11:04:42 33° ENE 11:07:03 10° ENE visible
03 Nov 1.3 02:20:32 10° NW 02:24:23 38° NNE 02:27:53 12° E visible
03 Nov 3.0 04:01:32 10° W 04:03:16 23° W 04:03:16 23° W visible
03 Nov 3.3 10:55:31 15° NE 10:55:31 15° NE 10:56:14 10° NE visible
03 Nov 2.8 12:31:31 10° NW 12:33:05 12° NNW 12:34:39 10° N visible
04 Nov 1.0 02:09:35 10° NW 02:13:36 53° NNE 02:17:39 10° ESE visible
04 Nov 2.4 03:51:00 10° W 03:53:57 32° SW 03:53:57 32° SW visible
05 Nov 2.3 03:40:29 10° WSW 03:44:10 30° SSW 03:44:31 30° S visible
